Regional Weather Roundup
Issued by NWS

Home | Current Version | Previous Version | Text Only | Print | Product List | Glossary Off
Versions: 1 2 3 4 5 6 7 8 9 10 11 12 13 14 15 16 17 18 19 20 21 22 23 24 25 26 27 28 29 30 31 32 33 34 35 36 37 38 39 40 41 42 43 44 45 46 47 48 49 50

418
ASUS45 KSLC 280110
RWRUT

UTAH REGIONAL WEATHER ROUNDUP
NATIONAL WEATHER SERVICE SALT LAKE CITY UT
700 PM MDT TUE SEP 27 2016

UTZ001>011-023>025-280200-

NORTHERN UTAH

CITY           SKY/WX    TMP DP  RH WIND       PRES   REMARKS
BRIGHAM CITY     N/A     73  42  33 CALM      30.13S
HILL AFB       CLEAR     71  50  47 NW6       30.14F
LOGAN          CLEAR     72  49  44 N5        30.13S
OGDEN          CLEAR     69  50  50 NW5       30.12F
PROVO AIRPORT  CLEAR     70  52  52 VRB5      30.12F
SALT LAKE CITY CLEAR     71  48  43 W8        30.11S
VERNAL         CLEAR     67  48  50 CALM      30.17S
WENDOVER       CLEAR     72  45  37 MISG      30.15F
HEBER CITY     CLEAR     70  39  32 SW10      30.14S
WEST JORDAN    CLEAR     69  50  51 NW5       30.15R

$$

UTZ012>022-026-027-280200-

SOUTHERN/CENTRAL UTAH

CITY           SKY/WX    TMP DP  RH WIND       PRES   REMARKS
BLANDING       CLEAR     72  32  22 S5        30.27R
BRYCE CANYON   CLEAR     63  32  31 SE6       30.31S
CEDAR CITY     PTCLDY    73  32  22 S13       30.15S
DELTA          CLEAR     73  37  27 NW5       30.12F
MILFORD        CLEAR     78  33  19 N10       30.11S
MOAB/CYNLANDS  CLEAR     76  35  22 NW8       30.10S
PRICE          CLEAR     72  33  24 CALM      30.20F
ST GEORGE      CLEAR     84  41  21 SE17      30.01R

$$

REGIONAL REPORTS     COLORADO/ARIZONA

CITY           SKY/WX    TMP DP  RH WIND       PRES   REMARKS
CRAIG, CO      CLEAR     62  35  36 W5        30.22R
GRAND JUNCTION CLEAR     74  35  24 NW9       30.11S
RIFLE          CLEAR     72  33  24 W10       30.14R
MONTROSE       CLEAR     70  36  28 NW6       30.18R
CORTEZ         CLEAR     66  38  35 SW6       30.20S
PAGE, AZ       MOCLDY    76  34  21 SW6       30.09S
GRAND CANYON   PTCLDY    64  39  39 E8        30.24F
KINGMAN        MOCLDY    79  47  32 E12       30.01S
FLAGSTAFF      PTCLDY    60  46  59 CALM      30.23R

$$

REGIONAL REPORTS    NEVADA/IDAHO/WYOMING

CITY           SKY/WX    TMP DP  RH WIND       PRES   REMARKS
LAS VEGAS, NV  CLOUDY    87  38  17 S5        29.94S
ELY            CLEAR     74  27  17 N7        30.17S
ELKO           CLEAR     80  34  19 NE6       30.10F
POCATELLO, ID  CLEAR     73  51  46 NW3       30.12F
BURLEY         CLEAR     74  49  41 NE6       30.07F
EVANSTON, WY   CLEAR     69  34  27 N6        30.26S
ROCK SPRINGS   LGT RAIN  68  30  24 CALM      30.25S

$$




USA.gov is the U.S. government's official web portal to all federal, state and local government web resources and services.